Weather Roundup
Issued by NWS

Home | Current Version | Previous Version | Text Only | Print | Product List | Glossary On
Versions: 1 2 3 4 5 6 7 8 9 10 11 12 13 14 15 16 17 18 19 20 21 22 23 24 25 26 27 28 29 30 31 32 33 34 35 36 37 38 39 40 41 42 43 44 45 46 47 48 49 50
000
NZUS93 KARX 020810
HRRWXR

CURRENT HOURLY OBSERVATIONS ACROSS
MUCH OF THE UPPER MISSISSIPPI VALLEY
NATIONAL WEATHER SERVICE LA CROSSE WI
300 AM CDT THU APR 02 2015


...SOUTHEAST MINNESOTA...


CITY           SKY/WX    TMP DP  RH WIND       PRES   REMARKS
ROCHESTER      LGT RAIN  53  52  96 W8        29.65F
ROCHESTER/MAYO CLOUDY    54  55 100 NW7       29.63F
WINONA         CLOUDY    57  54  88 W7        29.63F
AUSTIN         RAIN      54  52  94 SW7       29.61F
ALBERT LEA     LGT RAIN  52  52 100 W8        29.68R
DODGE CENTER   CLOUDY    54  52  94 NW13      29.64F
PRESTON        LGT RAIN  53  52  95 W9        29.66R
OWATONNA       CLOUDY    54  46  76 NW16      29.67F
FARIBAULT      CLOUDY    54  46  76 NW15G21   29.69R
$$

...ELSEWHERE IN MINNESOTA...


CITY           SKY/WX    TMP DP  RH WIND       PRES   REMARKS
MINNEAPOLIS    CLOUDY    53  35  50 W17       29.67R
INTNL FALLS    CLEAR     42  35  76 W13       29.51R
DULUTH         CLOUDY    51  41  68 W18G26    29.54S
RED WING       CLOUDY    54  52  94 W8        29.64R
REDWOOD FALLS  CLOUDY    49  37  63 W7        29.73R
MANKATO        CLOUDY    52  37  58 N12       29.71R
WORTHINGTON    CLOUDY    46  36  66 NW8       29.79R
FAIRMONT       CLOUDY    52  37  58 NW16      29.71S
$$

...SOUTHWEST WISCONSIN...


CITY           SKY/WX    TMP DP  RH WIND       PRES   REMARKS
LA CROSSE      CLOUDY    62  48  60 SE7       29.61F
PRAIRIE DU CHI CLOUDY    60  41  49 SE6       29.64F
BOSCOBEL       CLOUDY    62  42  47 SW10      29.65F
LONE ROCK      CLOUDY    59  39  47 S6        29.67F
PLATTEVILLE    CLOUDY    55  42  60 E9        29.68F
FORT MC COY    CLOUDY    62  40  43 S6        29.62F
CAMP DOUGLAS   CLOUDY    62  41  45 S12       29.61F
VIROQUA        FAIR      56  40  53 S7        29.64F
WIS DELLS      CLOUDY    58  37  46 S8        29.67F
$$

...ELSEWHERE IN WISCONSIN...


CITY           SKY/WX    TMP DP  RH WIND       PRES   REMARKS
MILWAUKEE      MOCLDY    57  36  45 S12       29.74F
MADISON        MOCLDY    56  39  53 SW3       29.73R
GREEN BAY      CLOUDY    55  41  59 SW15G25   29.64S
EAU CLAIRE     CLOUDY    55  53  93 W12       29.59F
BLACK RVR FLS  CLOUDY    53  53 100 CALM      29.61S
MEDFORD        CLOUDY    52  50  93 SW8G16    29.57F
WAUSAU         CLOUDY    56  46  69 SW9       29.59F
WIS RAPIDS     CLOUDY    61  35  37 S9        29.62F
MARSHFIELD     LGT RAIN  54  49  83 S6        29.60F
RICE LAKE      CLOUDY    53  46  75 W7        29.62R
$$

...NORTHEAST IOWA...


CITY           SKY/WX    TMP DP  RH WIND       PRES   REMARKS
DECORAH        CLOUDY    55  46  71 S6        29.62F
MASON CITY     RAIN      55  53  93 NW13      29.69F FOG
CHARLES CITY   LGT RAIN  55  55 100 W8        29.66S
OELWEIN        CLOUDY    54  46  76 SE7       29.63F
$$

...ELSEWHERE IN IOWA...


CITY           SKY/WX    TMP DP  RH WIND       PRES   REMARKS
DES MOINES     LGT RAIN  59  55  87 N16G23    29.63F
IOWA CITY      CLOUDY    57  50  77 SE6       29.65F
FORT DODGE     CLOUDY    54  50  87 NW5       29.74R
$$

...NORTHERN ILLINOIS...


CITY           SKY/WX    TMP DP  RH WIND       PRES   REMARKS
CHICAGO-OHARE  MOCLDY    57  34  41 S15       29.77F
CHICAGO-MIDWAY CLOUDY    58  34  40 S15G23    29.78F
MOLINE         MOCLDY    61  47  59 S16G24    29.66F
ROCKFORD       MOCLDY    54  38  54 S14G24    29.74F
PEORIA         RAIN      54  50  86 S12       29.76F FOG
$$

NOTE: "FAIR" INDICATES FEW OR NO CLOUDS BELOW 12,000 FEET WITH NO
SIGNIFICANT WEATHER AND/OR OBSTRUCTIONS TO VISIBILITY. WIND
SPEEDS ARE IN MILES-PER-HOUR.



USA.gov is the U.S. government's official web portal to all federal, state and local government web resources and services.